Neuburg Airport ETSN

Flugplatz Daten

Name: Neuburg Airport

Ident: ETSN

Lat: 48,71099854

Long: 11,21150017

Platzhöhe: 1249 ft

IataCode:

City:

Metar

2022/08/14 05:20
ETSN 140520Z 00000KT 9999 FEW320 13/10 Q1012 BLU+BLU+

Taf

2021/07/03 17:38
TAF ETSN 031620Z 0317/0420 VRB03KT 9999 NSW FEW050
BECMG 0321/0323 23005KT 9999 NSW BKN090 BY ETGL
Gewünschte Webcam nicht vorhanden? Dann fügen Sie eine hinzu. Sie wird dann so schnell wie möglich freigeschaltet
Url: Title: